[[{"header":{"parameterUnit":"m.s-1","parameterCategory":1,"la1":30.2991,"la2":30.254,"lo1":-89.0895,"lo2":-89.0444,"dy":0.0017,"dx":0.0017,"nx":28,"ny":28,"refTime":"2025-04-12T09:00:00:Z","depth":0,"parameterNumber":2,"parameterNumberName":"U-component_of_WINDS"},"data":[0,0,0,0,0,0,0,0,0,0,0,0,0,0,0,0,0,0,0,0,0,0,0,0,0,0,0,0,0,0,0,0,0,0,0,0,0,0,0,0,0,0,0,0,0,0,0,0,0,0,0,0,0,0,0,0,0,0,-0.8708,-0.8708,0,-0.8734,-0.8735,-0.8735,-0.8672,-0.867,-0.8668,-0.8666,-0.8695,-0.8698,-0.87,0,0,0,0,0,0,0,0,0,0,0,0,0,-0.8604,-0.8607,-0.8708,-0.8708,-0.8709,-0.8734,-0.8735,-0.8735,-0.8672,-0.867,-0.8667,-0.8665,-0.8694,-0.8697,-0.8701,0,0,0,0,0,0,0,0,0,0,0,0,0,-0.8642,-0.8607,-0.8708,-0.868,-0.8678,-0.8734,-0.8735,-0.8735,-0.8672,-0.8669,-0.8666,-0.8664,-0.8693,-0.8697,-0.8701,-0.8786,0,0,-0.8713,-0.8715,0,0,0,0,0,0,0,0,-0.864,-0.8646,-0.8684,-0.8682,-0.868,-0.8697,-0.8709,-0.8752,-0.8673,-0.8675,-0.8666,-0.8662,-0.8698,-0.8702,-0.8713,-0.8788,-0.8789,-0.8714,-0.8716,-0.8718,-0.8719,0,0,0,0,0,0,0,-0.8638,-0.8645,-0.8719,-0.8685,-0.8682,-0.8667,-0.8669,-0.8717,-0.8703,-0.8674,-0.867,-0.8674,-0.8697,-0.871,-0.8713,-0.8789,-0.8713,-0.8717,-0.8719,-0.8721,-0.8934,-0.8937,0,0,0,0,0,0,-0.8638,-0.8643,-0.8718,-0.8719,-0.8652,-0.8671,-0.8673,-0.8694,-0.8702,-0.8701,-0.8676,-0.8671,-0.8704,-0.8709,-0.8714,-0.8815,-0.8718,-0.8721,-0.8724,-0.8931,-0.8935,-0.8938,0,0,0,0,0,0,-0.8636,-0.8646,-0.8717,-0.868,-0.8688,-0.8676,-0.87,-0.8696,-0.8709,-0.8704,-0.8701,-0.8692,-0.8702,-0.8709,-0.8768,-0.8815,-0.8723,-0.8727,-0.8927,-0.8932,-0.8937,-0.9017,0,0,0,0,0,0,-0.8634,-0.8645,-0.8677,-0.8681,-0.869,-0.8771,-0.8703,-0.8699,-0.8716,-0.8709,-0.8718,-0.8717,-0.87,-0.8763,-0.8773,-0.8819,-0.873,-0.8923,-0.8929,-0.8935,-0.901,-0.9024,-0.9036,0,0,0,0,0,-0.863,-0.87,-0.8679,-0.8689,-0.873,-0.8773,-0.8778,-0.8758,-0.872,-0.8753,-0.8749,-0.8716,-0.8808,-0.877,-0.878,-0.8828,-0.892,-0.8928,-0.8935,-0.9004,-0.9021,-0.9035,0,0,0,0,0,0,-0.8703,-0.87,-0.8677,-0.875,-0.8762,-0.8763,-0.8803,-0.8776,-0.88,-0.8793,-0.8766,-0.8769,-0.8834,-0.8836,-0.8794,-0.8911,-0.8858,-0.8867,-0.8907,-0.8923,-0.8935,-0.8935,-0.8733,0,0,0,0,0,-0.8727,-0.8762,-0.8757,-0.8822,-0.8829,-0.8815,-0.8833,-0.8816,-0.8828,-0.8833,-0.8834,-0.8847,-0.8879,-0.8901,-0.8929,-0.9009,-0.901,-0.9047,-0.906,-0.907,-0.908,-0.9122,-0.9139,-0.8963,-0.8962,-0.8962,0,0,-0.8779,-0.8781,-0.8805,-0.8837,-0.8844,-0.8882,-0.882,-0.8863,-0.889,-0.884,-0.8897,-0.8897,-0.891,-0.8981,-0.9011,-0.8985,-0.9128,-0.908,-0.9088,-0.9092,-0.9132,-0.9148,-0.9163,-0.8968,-0.8967,-0.8966,0,0,-0.8892,-0.8896,-0.8951,-0.8959,-0.8971,-0.896,-0.8973,-0.8977,-0.8976,-0.9031,-0.8994,-0.9027,-0.9082,-0.9093,-0.9106,-0.922,-0.9192,-0.923,-0.9298,-0.934,-0.9354,-0.9366,-0.9408,-0.9423,-0.9239,-0.9239,-0.9239,0,-0.8954,-0.9009,-0.8982,-0.9027,-0.9042,-0.8996,-0.9051,-0.9061,-0.9082,-0.9094,-0.9063,-0.913,-0.9136,-0.9208,-0.9236,-0.9247,-0.9262,-0.923,-0.9354,-0.9366,-0.9377,-0.9416,-0.9432,-0.9244,-0.9243,-0.9243,-0.9242,0,-0.9086,-0.9124,-0.9166,-0.9187,-0.9206,-0.9256,-0.9237,-0.926,-0.924,-0.9233,-0.9291,-0.9295,-0.9324,-0.9339,-0.9321,-0.9409,-0.9392,-0.9358,-0.9305,-0.9399,-0.9436,-0.9451,-0.9251,-0.9249,-0.9248,-0.9246,0,0,-0.9249,-0.9251,-0.9268,-0.9276,-0.9284,-0.9314,-0.9361,-0.9388,-0.9409,-0.9424,-0.9463,-0.951,-0.9478,-0.9492,-0.9474,-0.951,-0.9602,-0.9472,-0.9472,-0.9497,-0.97,-0.9727,-0.9745,-0.9581,-0.9584,-0.9586,-0.9699,0,-0.9361,-0.9442,-0.9418,-0.95,-0.9535,-0.949,-0.9531,-0.9541,-0.9535,-0.9564,-0.9558,-0.9592,-0.9546,-0.9555,-0.9588,-0.9584,-0.9643,-0.9575,-0.9619,-0.9621,-0.962,-0.9764,-0.9793,-0.99,-0.9713,-0.9716,-0.9717,0,-0.9504,-0.9524,-0.9608,-0.961,-0.9624,-0.9661,-0.9684,-0.9712,-0.9721,-0.9714,-0.973,-0.9703,-0.975,-0.9694,-0.9758,-0.9713,-0.9729,-0.9729,-0.9733,-0.9738,-0.9677,-0.9775,-0.9933,-0.995,-0.974,-0.9738,-0.9736,0,-0.9616,-0.9663,-0.972,-0.9728,-0.9731,-0.9759,-0.9761,-0.9768,-0.9785,-0.9805,-0.9816,-0.9841,-0.9855,-0.9875,-0.9856,-0.9817,-0.9923,-0.9866,-0.992,-0.9921,-0.9947,-0.9946,-1.0112,-0.9954,-0.9954,-0.9953,-0.9953,0,-0.9746,-0.98,-0.977,-0.9806,-0.9865,-0.9836,-0.9896,-0.9893,-0.9899,-0.9933,-0.9895,-0.9928,-0.99,-0.9931,-0.9916,-0.9972,-0.9978,-0.9975,-0.9971,-0.9979,-0.998,-0.9992,-0.9985,-0.9958,-0.9957,-0.9956,-0.9955,0,-0.9883,-0.9865,-0.9924,-0.9921,-0.9921,-0.9965,-0.9962,-0.9995,-0.9985,-1.0029,-1.0037,-1.0022,-1.0056,-1.0038,-1.0073,-1.0063,-1.0136,-1.0121,-1.0133,-1.013,-1.0185,-1.0181,-1.0366,-1.0389,-1.0215,-1.0216,-1.0218,0,-0.9968,-1.0008,-1.0008,-1.0028,-1.0033,-1.0065,-1.0082,-1.0055,-1.0075,-1.0088,-1.0119,-1.0149,-1.0172,-1.0228,-1.022,-1.0247,-1.0233,-1.0296,-1.0237,-1.0245,-1.0236,-1.0235,-1.0239,-1.0309,-1.0311,-1.0313,-1.0314,0,-1.0121,-1.011,-1.0136,-1.0158,-1.0179,-1.0196,-1.021,-1.0228,-1.0201,-1.0225,-1.0258,-1.0276,-1.031,-1.0341,-1.0363,-1.0366,-1.0337,-1.0332,-1.0346,-1.0357,-1.0363,-1.0362,-1.0167,-1.0329,-1.0327,-1.0326,-1.0325,-1.0325,-1.0236,-1.0269,-1.0275,-1.0305,-1.0311,-1.0324,-1.0355,-1.0348,-1.0375,-1.0401,-1.0383,-1.0422,-1.043,-1.0456,-1.0463,-1.0493,-1.0468,-1.0489,-1.0494,-1.05,-1.0508,-1.0356,-1.0497,-1.0497,-1.0496,-1.0496,-1.0496,0,-1.0389,-1.0389,-1.0417,-1.0436,-1.0459,-1.0426,-1.0439,-1.0462,-1.0497,-1.0505,-1.0528,-1.0566,-1.0595,-1.0589,-1.0615,-1.0641,-1.0628,-1.0649,-1.0648,-1.0649,-1.0529,-1.0515,-1.0659,-1.0659,-1.0659,-1.0659,-1.0659,-1.0659,-1.0471,-1.0526,-1.0516,-1.0573,-1.0573,-1.0611,-1.0622,-1.0634,-1.064,-1.0684,-1.0708,-1.0703,-1.0706,-1.0731,-1.0756,-1.0754,-1.0766,-1.0793,-1.0785,-1.0674,-1.0658,-1.0642,-1.0629,-1.0795,-1.0795,-1.0903,-1.0904,-1.0905]},{"header":{"parameterUnit":"m.s-1","parameterCategory":1,"la1":30.2991,"la2":30.254,"lo1":-89.0895,"lo2":-89.0444,"dy":0.0017,"dx":0.0017,"nx":28,"ny":28,"refTime":"2025-04-12T09:00:00:Z","depth":0,"parameterNumber":3,"parameterNumberName":"V-component_of_WINDS"},"data":[0,0,0,0,0,0,0,0,0,0,0,0,0,0,0,0,0,0,0,0,0,0,0,0,0,0,0,0,0,0,0,0,0,0,0,0,0,0,0,0,0,0,0,0,0,0,0,0,0,0,0,0,0,0,0,0,0,0,-4.1595,-4.1596,0,-4.1712,-4.1713,-4.1714,-4.1666,-4.1663,-4.166,-4.1657,-4.1773,-4.1778,-4.1784,0,0,0,0,0,0,0,0,0,0,0,0,0,-4.1325,-4.1331,-4.1595,-4.1597,-4.1598,-4.1712,-4.1713,-4.1715,-4.1666,-4.1663,-4.1659,-4.1656,-4.1771,-4.1777,-4.1784,0,0,0,0,0,0,0,0,0,0,0,0,0,-4.1442,-4.1332,-4.1595,-4.1587,-4.1588,-4.1711,-4.1713,-4.1715,-4.1667,-4.1663,-4.1658,-4.1654,-4.1769,-4.1777,-4.1785,-4.1921,0,0,-4.1811,-4.1815,0,0,0,0,0,0,0,0,-4.1436,-4.1452,-4.1587,-4.1588,-4.1589,-4.167,-4.166,-4.1784,-4.1668,-4.1637,-4.1657,-4.1652,-4.1742,-4.1752,-4.1783,-4.1927,-4.1932,-4.1812,-4.1817,-4.1821,-4.1823,0,0,0,0,0,0,0,-4.1428,-4.1447,-4.1641,-4.1589,-4.159,-4.1577,-4.1589,-4.1684,-4.1711,-4.1639,-4.1636,-4.1651,-4.1741,-4.1775,-4.1785,-4.1933,-4.1812,-4.1819,-4.1825,-4.1828,-4.2194,-4.2198,0,0,0,0,0,0,-4.142,-4.1441,-4.1637,-4.1645,-4.1501,-4.1585,-4.1598,-4.1648,-4.171,-4.1715,-4.1654,-4.1648,-4.1762,-4.1775,-4.1789,-4.1952,-4.1821,-4.1829,-4.1834,-4.2189,-4.2195,-4.22,0,0,0,0,0,0,-4.1414,-4.1438,-4.1633,-4.1542,-4.1566,-4.1594,-4.165,-4.1653,-4.1686,-4.1721,-4.1725,-4.1684,-4.176,-4.1777,-4.1889,-4.1956,-4.1832,-4.184,-4.2184,-4.2191,-4.2198,-4.228,0,0,0,0,0,0,-4.1407,-4.1436,-4.149,-4.1543,-4.1571,-4.1732,-4.1654,-4.1658,-4.1702,-4.1695,-4.175,-4.1755,-4.1758,-4.1877,-4.1898,-4.1965,-4.1847,-4.2178,-4.2187,-4.2195,-4.2272,-4.2289,-4.2304,0,0,0,0,0,-4.1398,-4.1508,-4.1493,-4.1517,-4.1638,-4.1736,-4.1752,-4.1753,-4.1707,-4.176,-4.1782,-4.1754,-4.1945,-4.1889,-4.1912,-4.1983,-4.2174,-4.2185,-4.2195,-4.2265,-4.2286,-4.2304,0,0,0,0,0,0,-4.1459,-4.1514,-4.1498,-4.1629,-4.1679,-4.1728,-4.1795,-4.1776,-4.1838,-4.1829,-4.1827,-4.184,-4.1956,-4.198,-4.1916,-4.2118,-4.2052,-4.2068,-4.2097,-4.2118,-4.2134,-4.2126,-4.1854,0,0,0,0,0,-4.1489,-4.1565,-4.1608,-4.172,-4.1746,-4.1766,-4.1809,-4.1806,-4.1856,-4.1877,-4.1907,-4.1956,-4.2027,-4.2074,-4.2141,-4.2275,-4.2286,-4.2335,-4.2351,-4.2365,-4.2378,-4.245,-4.2472,-4.2234,-4.2234,-4.2234,0,0,-4.1549,-4.1589,-4.1637,-4.1733,-4.1771,-4.1849,-4.1784,-4.1869,-4.1927,-4.1889,-4.1997,-4.2021,-4.2075,-4.2199,-4.2254,-4.2223,-4.2446,-4.2378,-4.2388,-4.2394,-4.2463,-4.2486,-4.2506,-4.2241,-4.224,-4.2239,0,0,-4.1699,-4.1737,-4.1834,-4.1874,-4.1932,-4.1945,-4.1968,-4.2021,-4.2036,-4.2144,-4.2117,-4.2185,-4.2308,-4.2347,-4.2383,-4.2548,-4.2524,-4.257,-4.2655,-4.2725,-4.2744,-4.2761,-4.2819,-4.284,-4.2583,-4.2584,-4.2584,0,-4.1767,-4.1885,-4.1886,-4.1974,-4.2017,-4.1987,-4.2085,-4.2122,-4.2199,-4.2229,-4.2192,-4.2346,-4.238,-4.2512,-4.2553,-4.2583,-4.2608,-4.2564,-4.2741,-4.2758,-4.2774,-4.2829,-4.2851,-4.2589,-4.2588,-4.2588,-4.2587,0,-4.1965,-4.2047,-4.2118,-4.2195,-4.2245,-4.2337,-4.2351,-4.2402,-4.2394,-4.2411,-4.2521,-4.2561,-4.2636,-4.2667,-4.266,-4.2798,-4.2777,-4.2741,-4.2675,-4.2802,-4.2854,-4.2875,-4.2596,-4.2594,-4.2593,-4.2592,0,0,-4.2158,-4.2234,-4.226,-4.2294,-4.2357,-4.2419,-4.2509,-4.2584,-4.2627,-4.2681,-4.2756,-4.286,-4.2828,-4.2869,-4.2866,-4.2928,-4.3056,-4.2885,-4.2886,-4.2915,-4.321,-4.3236,-4.3261,-4.304,-4.3044,-4.3047,-4.3205,0,-4.2313,-4.2473,-4.2476,-4.2622,-4.2697,-4.267,-4.2748,-4.2794,-4.2812,-4.2877,-4.2895,-4.297,-4.2921,-4.2946,-4.3006,-4.3028,-4.3115,-4.3016,-4.3108,-4.3112,-4.3096,-4.3288,-4.3317,-4.3464,-4.3225,-4.3229,-4.3231,0,-4.2515,-4.2577,-4.2731,-4.2782,-4.2814,-4.2885,-4.2953,-4.3016,-4.3067,-4.3075,-4.3121,-4.3109,-4.3199,-4.3131,-4.3255,-4.3188,-4.3225,-4.3242,-4.3247,-4.3256,-4.3179,-4.3302,-4.3511,-4.3533,-4.3264,-4.3261,-4.3259,0,-4.264,-4.2762,-4.2869,-4.29,-4.2962,-4.3012,-4.304,-4.3087,-4.3132,-4.3191,-4.3219,-4.3288,-4.3325,-4.3378,-4.3384,-4.3333,-4.3508,-4.344,-4.3517,-4.3517,-4.3555,-4.3552,-4.3773,-4.3579,-4.3579,-4.3579,-4.3578,0,-4.2813,-4.2908,-4.2927,-4.2993,-4.3098,-4.31,-4.3204,-4.3228,-4.327,-4.3339,-4.3319,-4.3384,-4.3388,-4.3455,-4.346,-4.3561,-4.3578,-4.3587,-4.3587,-4.3589,-4.3588,-4.3613,-4.3603,-4.3584,-4.3583,-4.3582,-4.3581,0,-4.297,-4.2987,-4.3103,-4.3153,-4.3167,-4.3243,-4.3285,-4.3347,-4.3362,-4.3451,-4.3471,-4.3495,-4.3572,-4.3584,-4.3673,-4.3677,-4.3799,-4.3788,-4.3782,-4.3781,-4.3856,-4.3849,-4.4101,-4.4134,-4.3919,-4.3921,-4.3923,0,-4.308,-4.3153,-4.3211,-4.3256,-4.3288,-4.3361,-4.3407,-4.3411,-4.3459,-4.3523,-4.3577,-4.3653,-4.3713,-4.3838,-4.3862,-4.3931,-4.3921,-4.4005,-4.3932,-4.3931,-4.3923,-4.3918,-4.3925,-4.4019,-4.4021,-4.4023,-4.4025,0,-4.3272,-4.3276,-4.3344,-4.3414,-4.3469,-4.3525,-4.3577,-4.3615,-4.3625,-4.368,-4.376,-4.3807,-4.3899,-4.3974,-4.4042,-4.4069,-4.4049,-4.4048,-4.4069,-4.4072,-4.4065,-4.407,-4.3821,-4.4042,-4.404,-4.4039,-4.4038,-4.4038,-4.3408,-4.3472,-4.3523,-4.3598,-4.3638,-4.3687,-4.3749,-4.3772,-4.3839,-4.3916,-4.3913,-4.4001,-4.4048,-4.4138,-4.417,-4.4237,-4.4209,-4.424,-4.4248,-4.4256,-4.4263,-4.4055,-4.4249,-4.4249,-4.4248,-4.4248,-4.4248,0,-4.3599,-4.3631,-4.37,-4.3774,-4.3834,-4.3811,-4.3867,-4.3917,-4.3995,-4.4042,-4.4103,-4.4193,-4.4266,-4.4296,-4.4367,-4.4415,-4.4407,-4.4433,-4.443,-4.4436,-4.4284,-4.4258,-4.4438,-4.4438,-4.4438,-4.4438,-4.4438,-4.4438,-4.3706,-4.3812,-4.3822,-4.3947,-4.3977,-4.4064,-4.4098,-4.4143,-4.418,-4.4284,-4.4344,-4.4364,-4.4404,-4.4477,-4.4542,-4.4549,-4.4576,-4.4606,-4.4609,-4.4466,-4.4447,-4.4428,-4.4405,-4.4612,-4.4612,-4.4756,-4.4757,-4.4758]}]]